This is the latest recevied weather packets stored in our database for station/object HB9MIR-13. If no packets are shown the sender has not sent any weather packets the latest 10 day(s).
| Time | Temp. | Humidity | Pressure | Rain* | Wind** | Luminosity | Snow |
|---|---|---|---|---|---|---|---|
| 1777746361 | 18.33° C | 60% | 1014.3 hPa | 0 mm | - | 9 W/m² | - |
| 1777745674 | 18.89° C | 60% | 1014.1 hPa | 0 mm | - | 15 W/m² | - |
| 1777744988 | 19.44° C | 59% | 1014 hPa | 0 mm | - | 22 W/m² | - |
| 1777744251 | 20.56° C | 59% | 1013.9 hPa | 0 mm | - | 30 W/m² | - |
| 1777743555 | 21.67° C | 59% | 1013.9 hPa | 0 mm | - | 37 W/m² | - |
| 1777742862 | 23.33° C | 55% | 1013.7 hPa | 0 mm | - | 48 W/m² | - |
| 1777742175 | 24.44° C | 49% | 1013.7 hPa | 0 mm | - | 76 W/m² | - |
| 1777741486 | 25.56° C | 33% | 1013.8 hPa | 0 mm | - | 71 W/m² | - |
| 1777740749 | 25° C | 33% | 1013.8 hPa | 0 mm | - | 84 W/m² | - |
| 1777740048 | 25° C | 53% | 1014 hPa | 0 mm | - | 164 W/m² | - |
| 1777739360 | 25.56° C | 39% | 1013.8 hPa | 0 mm | - | 111 W/m² | - |
| 1777738673 | 26.11° C | 33% | 1014.1 hPa | 0 mm | - | 149 W/m² | - |
| 1777737985 | 25.56° C | 33% | 1014.3 hPa | 0 mm | - | 140 W/m² | - |
| 1777737249 | 26.11° C | 31% | 1014.7 hPa | 0 mm | - | 316 W/m² | - |
| 1777735798 | 26.11° C | 32% | 1015 hPa | 0 mm | - | 388 W/m² | - |
| 1777735061 | 26.11° C | 36% | 1015.1 hPa | 0 mm | - | 420 W/m² | - |
| 1777734360 | 26.11° C | 33% | 1015.1 hPa | 0 mm | - | 480 W/m² | - |
| 1777733673 | 26.11° C | 33% | 1015.4 hPa | 0 mm | - | 510 W/m² | - |
| 1777732985 | 26.11° C | 34% | 1015.6 hPa | 0 mm | - | 499 W/m² | - |
| 1777732297 | 25.56° C | 34% | 1015.9 hPa | 0 mm | - | 574 W/m² | - |
| 1777731610 | 26.67° C | 35% | 1016.1 hPa | 0 mm | - | 527 W/m² | - |
| 1777730922 | 25.56° C | 37% | 1016.3 hPa | 0 mm | - | 647 W/m² | - |
| 1777730247 | 26.11° C | 34% | 1016.5 hPa | 0 mm | - | 605 W/m² | - |
| 1777729546 | 26.67° C | 35% | 1016.7 hPa | 0 mm | - | 632 W/m² | - |
| 1777728858 | 26.11° C | 33% | 1016.9 hPa | 0 mm | - | 676 W/m² | - |
* Rain latest hour (hover to see other rain measurements)
** Current wind speed in m/s (hover to see current wind gust speed)